Regional Weather Roundup
Issued by NWS Jackson, KY

Home | Current Version | Previous Version | Graphics & Text | Print | Product List | Glossary On
Versions: 1 2 3 4 5 6 7 8 9 10 11 12 13 14 15 16 17 18 19 20 21 22 23 24 25 26 27 28 29 30 31 32 33 34 35 36 37 38 39 40 41 42 43 44 45 46 47 48 49 50
000
ASUS43 KJKL 300310
RWRJKL

EAST KENTUCKY HOURLY WEATHER ROUNDUP
NATIONAL WEATHER SERVICE JACKSON KY
1100 PM EDT WED JUL 29 2015

NOTE: "FAIR" INDICATES FEW OR NO CLOUDS BELOW 12,000 FEET WITH
NO SIGNIFICANT WEATHER AND/OR OBSTRUCTIONS TO VISIBILITY.

* THESE REPORTS ARE NOT UNDER NWS QUALITY CONTROL AND MAY NOT
  REPORT WEATHER SUCH AS PRECIPITATION AND FOG.

KYZ079-080-083-085-087-088-110-112-115-119-120-300400
...EASTERN KENTUCKY...

CITY           SKY/WX    TMP DP  RH WIND       PRES   REMARKS
JACKSON        PTCLDY    77  74  90 CALM      30.04R
LONDON         MOCLDY    79  67  66 NW8       30.06R
SOMERSET*      LGT RAIN  72  72 100 SW6       30.08R
MONTICELLO*    LGT RAIN  74  73  96 CALM      30.10R
WILLIAMSBURG*  PTCLDY    75  75 100 CALM      30.05R
MIDDLESBORO*   MOCLDY    77  73  88 CALM      30.06R
HAZARD APT*    CLEAR     77  75  94 CALM      30.03R
BLACK MTN*       N/A     70  68  94 NE1         N/A
PIKEVILLE APT* MOCLDY    79  73  83 CALM      30.04R
BIG SANDY*     CLOUDY    81  74  81 CALM      30.02R
MOREHEAD APT*  CLOUDY    75  72  88 CALM      30.03R
$$

KYZ035-036-041-042-044-050-067-078-099-300400
...CENTRAL KENTUCKY...

CITY           SKY/WX    TMP DP  RH WIND       PRES   REMARKS
MT STERLING*   CLOUDY    72  72 100 NW7       30.03S
FLEMING/MASON* CLEAR     73  72  94 W3        30.02R
DANVILLE*      LGT RAIN  70  70 100 S3        30.06S
RICHMOND*      CLOUDY    72  68  88 SW7       30.05R
LEXINGTON      CLOUDY    72  70  93 SW5       30.04R
FRANKFORT      CLOUDY    72  70  93 CALM      30.02R
$$

KYZ091>093-OHZ055-061-077-WVZ005-015-034-035-042-300400
...SOUTHERN OHIO/WEST VIRGINIA...

CITY           SKY/WX    TMP DP  RH WIND       PRES   REMARKS
COVINGTON      CLOUDY    75  73  93 W3        30.01R
COLUMBUS       CLOUDY    76  74  93 S5        29.96R
DAYTON         CLOUDY    76  76 100 SW8       30.00R
WILMINGTON     CLOUDY    75  72  90 W8        29.99R
HUNTINGTON     MOCLDY    79  75  87 CALM      29.97S
CHARLESTON     MOCLDY    76  73  91 SE3       29.98S FOG
PINEVILLE*     PTCLDY    73  73 100 MISG      30.11R FOG
BECKLEY        MOCLDY    73  69  87 CALM      30.10R
BLUEFIELD      PTCLDY    75  66  73 W5        30.13R
$$

VAZ002-007-008-TNZ017-027-036-066-071-300400
...SOUTHWEST VIRGINIA/EAST TENNESSEE...

CITY           SKY/WX    TMP DP  RH WIND       PRES   REMARKS
WISE*          CLEAR     73  66  78 CALM      30.13S
ABINGDON*      PTCLDY    77  69  76 E9        30.09R
BRISTOL        PTCLDY    77  73  87 NE3       30.04R
KNOXVILLE      MOCLDY    82  74  76 CALM      30.02R
OAK RIDGE      PTCLDY    82  75  79 CALM      30.04R
CROSSVILLE     PTCLDY    79  73  82 NW5       30.12R
NASHVILLE      MOCLDY    85  78  80 N9        30.03R HX  96
$$

...KEY TO REMARKS...
VSB - VISIBILITY IN MILES
WCI - WIND CHILL INDEX
HX  - HEAT INDEX

$$



USA.gov is the U.S. government's official web portal to all federal, state and local government web resources and services.